Simultaneous Nadir Overpasses (SNOs) Predictions

Prediction of SNOs between GOES-14 and NOAA-20 Satellite Orbit:

Table of predicted SNOs for the next 14.0 days since TLE Epoch: 7/9/2022
Index Date Time (GOES-14) GOES-14 Lat,Lon NOAA-20 Lat,Lon Distance(km) Time Diff (sec)
1 07/09/2022 20:23:50 0.23,-104.80 0.32,-104.38 48.55 80
2 07/12/2022 08:24:11 -0.25,-104.50 -0.13,-105.10 69.13 80
3 07/13/2022 08:08:06 -0.23,-104.49 -1.13,-100.57 446.86 80
4 07/14/2022 20:27:22 0.27,-104.77 0.00,-105.88 127.83 80
5 07/15/2022 20:11:16 0.25,-104.76 1.01,-101.35 388.76 80
6 07/17/2022 08:30:23 -0.29,-104.47 0.19,-106.61 244.06 80
7 07/18/2022 08:14:17 -0.27,-104.47 -0.81,-102.08 272.42 80
8 07/19/2022 20:33:34 0.30,-104.75 -0.30,-107.39 302.17 80
9 07/20/2022 20:17:28 0.29,-104.75 0.70,-102.86 214.95 80
10 07/22/2022 08:39:14 -0.33,-104.47 0.50,-108.12 416.46 80
